Wind_Speed
38 41 43 42 40 38 37 37 38 38 37 37 38 39 40 42 45 43 41 38 36 46 53 49 53 55 52 50 46 44 44 44 44 44 44 43 43 43 42 40 38 37 37 34 32 31 29 29 28 28 29 30 32 33 34 36 37 38 39 40 42 42 43 43 44 44 44 43 42 40 38 37 37 38 38 39 39 39 40 40 41 40 39 38 37 36
42 46 47 44 41 38 36 35 35 36 36 37 38 39 41 42 44 44 41 38 36 44 53 49 52 58 54 51 47 43 44 46 44 40 38 39 39 39 39 38 37 35 34 33 32 30 29 29 28 28 28 28 29 30 32 34 37 39 41 42 42 42 42 43 43 43 43 41 40 38 36 36 38 39 38 38 37 38 39 41 41 41 39 38 38 37
45 49 47 41 38 36 35 34 34 35 35 35 36 37 42 42 44 46 41 38 36 41 50 49 55 62 55 52 50 44 45 43 38 35 34 36 37 36 37 36 33 29 26 27 28 28 28 28 29 29 30 30 31 31 33 35 37 39 41 41 41 42 42 41 41 40 40 39 37 37 37 39 40 40 39 39 38 39 40 41 42 42 41 40 39 38
45 45 41 36 34 34 34 32 31 32 35 38 37 39 44 43 42 46 43 39 38 41 47 48 56 65 58 51 43 35 39 40 38 40 36 34 36 37 34 26 20 20 18 18 21 21 23 25 25 26 27 29 31 32 33 34 37 39 39 40 40 41 41 40 39 38 37 37 37 38 39 41 42 42 41 41 41 41 42 42 42 42 42 41 40 39
47 43 39 37 37 38 37 36 34 35 40 43 42 41 43 42 39 44 43 40 40 40 40 41 51 60 46 26 21 28 41 46 41 37 35 37 38 30 16 7 14 23 16 12 15 15 16 19 21 24 26 28 30 31 32 34 35 37 37 37 37 37 37 37 37 36 36 37 38 39 40 41 43 43 43 43 42 42 42 41 40 42 42 41 40 39
48 41 38 38 39 39 39 39 36 36 40 44 43 38 37 37 37 39 37 35 36 31 28 25 27 38 33 19 28 43 46 40 31 31 39 40 28 9 2 5 19 21 11 9 15 18 19 19 18 20 23 27 30 31 32 34 33 33 31 32 34 34 35 35 35 35 35 36 37 38 40 41 42 43 43 42 42 41 39 39 40 41 42 40 39 39
45 38 34 35 35 34 35 36 33 31 37 43 40 32 30 31 33 33 29 27 27 22 23 21 12 26 47 47 41 39 32 27 29 38 41 26 5 8 5 13 21 11 6 11 18 23 24 22 19 18 20 23 27 29 30 30 28 27 27 30 32 34 35 35 34 34 34 35 36 37 38 39 41 42 42 42 41 39 37 38 41 42 41 39 38 37
36 32 29 28 27 27 28 29 28 25 31 39 36 29 28 29 29 29 25 23 26 29 32 27 15 20 46 55 38 27 24 25 31 33 24 3 12 10 6 21 15 4 6 15 26 30 24 19 18 18 19 21 24 26 26 26 25 27 30 32 34 36 36 36 34 33 33 34 36 37 38 39 40 41 41 41 42 41 39 40 42 43 41 39 38 37
34 32 31 29 28 27 27 29 29 26 28 34 33 29 28 26 27 27 27 26 26 30 27 18 10 10 32 55 44 29 25 21 18 12 4 10 15 2 17 17 4 3 8 18 29 29 20 16 17 18 19 20 22 23 25 26 26 30 33 34 35 36 36 35 34 33 33 34 36 37 39 39 39 39 40 41 42 42 42 42 42 42 41 39 38 37
34 33 33 33 32 30 30 30 30 29 29 30 29 29 28 24 26 25 26 28 21 21 19 11 9 6 27 58 42 21 18 12 9 4 8 12 8 9 15 3 5 6 13 22 29 25 21 18 16 18 19 19 21 22 24 25 26 30 33 35 35 35 34 34 34 34 34 34 36 36 37 37 36 37 39 40 41 42 42 42 42 41 40 40 39 38
33 34 34 34 31 29 29 29 30 30 29 30 28 29 29 27 28 24 24 23 11 13 21 18 17 9 18 38 23 7 6 8 8 2 8 9 5 13 9 3 10 13 16 27 29 22 23 21 17 17 19 19 21 22 23 25 27 31 33 34 34 32 32 34 35 35 35 34 35 34 33 33 33 35 37 38 39 40 40 40 40 40 40 40 40 39
30 31 32 32 30 28 28 28 28 29 28 29 27 27 26 21 19 15 13 12 3 10 20 19 18 15 18 22 10 3 6 8 14 13 10 16 18 12 7 12 19 18 22 30 28 23 21 20 18 18 19 21 23 24 24 25 27 30 31 31 30 29 29 31 32 33 32 33 33 32 32 32 31 33 34 35 35 36 37 37 38 39 39 40 40 38
33 35 34 33 33 31 28 26 27 28 28 29 28 26 17 8 7 5 3 4 6 13 17 11 9 17 34 42 32 29 30 28 27 23 21 24 22 19 23 26 23 21 27 31 29 25 21 20 19 18 22 24 23 24 24 24 24 24 26 26 26 26 27 28 28 27 27 28 29 30 31 30 30 30 30 30 31 31 33 34 36 38 38 38 37 35
34 38 39 35 34 32 27 26 26 27 27 27 27 24 15 4 1 3 3 3 7 15 16 13 13 17 34 44 38 35 33 28 26 25 27 32 35 38 37 30 21 19 24 25 23 24 24 24 22 19 21 24 24 23 22 22 20 20 21 23 24 24 25 24 23 23 22 23 24 25 27 27 27 27 26 26 27 28 29 32 35 36 36 35 33 32
25 28 32 28 26 26 26 24 23 24 25 24 25 23 21 18 10 5 5 4 7 10 8 12 12 11 21 30 32 34 36 37 39 40 40 41 40 33 23 19 17 14 16 17 17 21 24 24 25 22 17 17 19 19 21 21 20 19 19 21 24 23 22 22 22 22 22 22 22 22 23 24 24 23 22 22 24 26 28 31 33 34 33 32 32 31
21 26 28 21 20 24 26 24 22 22 22 23 24 23 26 30 25 17 15 17 14 8 5 12 14 23 37 46 50 49 50 49 45 42 36 27 21 18 15 14 12 10 12 14 18 23 23 20 22 21 15 13 16 15 17 20 21 21 20 20 22 23 23 23 22 24 24 24 22 21 22 23 22 21 20 20 22 25 27 30 32 32 32 32 32 32
17 24 25 17 15 17 18 19 19 20 19 18 19 22 26 28 28 22 18 22 18 9 13 20 24 35 44 50 55 50 44 37 28 24 21 17 19 21 20 16 13 16 20 23 24 23 21 18 17 19 18 17 19 20 18 18 21 23 23 20 20 22 25 25 25 24 24 24 24 22 22 22 22 22 19 19 22 26 29 31 33 33 34 34 34 34
25 31 35 32 27 24 24 22 20 22 23 22 21 24 25 22 23 21 10 9 10 7 13 22 30 35 30 32 44 43 38 35 26 22 22 23 24 21 20 21 22 25 27 26 23 19 17 20 21 22 24 25 28 31 29 24 22 24 25 24 21 20 23 26 28 27 25 24 23 21 21 21 22 22 20 19 22 27 32 34 36 37 37 37 37 37
28 30 37 41 36 30 30 28 24 25 26 27 29 30 26 18 16 17 9 4 7 6 7 15 26 32 31 39 51 50 48 48 40 31 26 24 22 21 23 26 26 27 26 22 20 18 20 25 28 29 31 33 37 42 43 37 30 27 27 28 25 23 23 27 30 30 27 24 20 18 19 21 22 22 22 22 23 27 30 33 36 39 41 41 40 41
28 22 27 38 36 28 29 32 31 31 29 30 31 32 33 28 21 19 15 8 7 7 7 10 14 20 32 46 53 49 47 46 41 35 33 33 34 32 30 28 26 24 21 20 20 23 27 29 31 35 40 43 42 45 47 44 39 36 33 32 31 28 26 28 31 32 28 24 21 20 22 24 25 25 25 27 28 30 31 32 34 37 41 43 44 45
30 23 25 37 39 32 32 36 37 35 31 28 28 28 30 32 27 22 20 20 17 9 5 8 9 16 30 42 48 49 47 44 42 42 43 45 41 34 27 24 24 23 25 30 30 32 38 38 37 39 44 47 45 46 49 47 46 45 39 36 35 34 32 30 30 30 27 26 25 26 29 30 30 30 30 31 32 33 35 37 38 39 41 44 46 48
27 23 25 32 37 38 40 39 38 35 29 26 25 25 26 29 27 18 13 24 30 20 13 12 9 16 33 42 47 52 50 47 47 47 49 46 39 35 33 32 35 37 40 43 42 44 48 49 46 45 47 48 46 45 47 46 45 43 37 34 36 37 37 35 32 30 27 26 29 33 36 36 35 34 35 35 35 35 36 38 40 41 44 47 48 50
28 25 27 32 37 44 46 42 39 38 38 37 35 36 37 36 35 26 15 21 28 25 24 22 13 18 37 45 46 49 51 51 49 46 46 43 39 40 42 43 47 48 47 49 51 52 52 50 47 44 43 44 43 42 44 43 41 38 33 31 33 34 36 36 35 33 32 32 36 39 40 40 38 36 36 38 38 38 37 39 40 42 44 46 49 52
28 25 28 32 34 38 41 41 42 41 40 41 42 43 44 42 42 41 34 31 28 24 25 20 11 18 33 41 45 48 50 51 48 44 42 42 43 44 46 48 50 50 51 51 50 49 47 46 43 40 40 40 40 41 42 41 39 36 33 31 32 32 34 36 36 36 36 38 41 42 41 41 39 38 39 39 39 39 39 40 42 45 44 43 46 50
26 23 22 20 17 20 24 26 31 34 33 34 37 38 38 40 42 42 42 37 26 27 31 21 13 21 28 32 41 47 50 50 47 44 43 45 48 51 51 51 48 47 48 47 47 47 48 48 47 44 42 41 40 40 40 40 38 35 34 33 33 33 35 38 40 40 41 42 43 44 44 44 45 45 44 42 40 41 42 42 44 47 48 45 45 47
35 33 29 20 10 10 13 15 22 27 25 23 25 26 28 32 32 32 37 33 21 26 36 29 24 34 37 35 40 44 46 46 44 44 47 49 51 54 54 53 50 49 50 50 51 52 51 52 50 47 44 43 44 43 41 40 39 37 35 35 36 37 38 40 43 45 46 46 47 48 48 50 51 51 50 46 44 43 44 46 46 48 51 49 47 47
37 36 36 34 29 27 31 34 36 35 32 28 29 30 32 34 33 31 31 31 28 30 36 36 37 42 41 38 38 37 37 39 42 46 52 53 53 54 55 56 56 58 58 57 55 53 52 52 52 52 50 48 47 47 46 45 43 42 41 40 41 42 42 44 45 48 51 52 52 53 53 54 55 55 54 52 49 45 44 47 48 49 53 53 51 51
31 29 32 37 39 39 42 45 43 42 43 43 40 39 40 40 41 39 37 40 41 33 28 34 38 36 34 35 38 40 42 44 47 50 53 55 56 56 57 59 59 60 61 60 59 57 56 54 53 54 53 51 48 49 50 50 49 48 47 46 46 47 47 48 49 50 52 54 55 55 55 56 56 57 56 54 51 47 44 46 49 51 53 55 55 55
36 36 39 41 40 39 41 44 43 42 42 41 37 35 37 39 41 42 43 47 46 35 31 37 40 39 41 43 44 47 48 49 50 52 54 56 58 60 62 63 63 63 62 61 60 59 57 55 54 52 50 48 47 46 48 50 50 50 49 49 49 50 52 53 53 54 55 56 57 58 57 57 57 56 56 55 53 49 45 44 47 50 54 56 57 57
30 32 33 32 33 32 34 37 40 39 37 37 34 32 33 36 41 44 45 45 44 43 44 45 44 44 46 45 45 47 47 48 49 50 52 54 56 59 61 63 64 62 60 58 57 57 55 54 53 50 47 44 44 45 48 50 52 53 54 55 55 55 54 55 56 57 57 58 60 60 61 60 58 57 56 56 56 55 51 48 47 48 52 56 58 59
25 26 26 27 29 30 32 36 38 37 36 37 36 37 41 45 48 49 48 47 48 49 48 46 43 42 40 38 39 40 41 44 45 45 47 49 52 55 56 58 59 58 57 54 53 52 52 50 49 48 47 44 44 46 49 53 57 58 58 58 58 58 57 56 56 56 56 57 59 60 62 62 62 60 58 58 58 60 59 57 53 51 51 54 57 58
32 33 35 35 33 36 43 44 40 40 38 35 37 43 50 53 51 50 50 49 48 47 46 44 41 38 36 36 35 33 34 36 39 41 44 45 46 48 49 50 50 50 50 49 48 47 47 48 49 50 51 50 48 47 47 50 54 56 57 57 57 57 57 57 57 56 55 55 56 59 61 63 64 64 63 61 60 61 62 62 61 59 56 55 56 57
44 40 39 37 29 34 46 45 39 33 25 26 40 48 48 47 46 46 46 44 43 43 42 42 40 40 40 40 37 34 31 31 32 34 36 37 39 40 41 42 43 44 46 47 49 50 51 52 52 51 51 51 49 47 45 44 45 48 52 54 55 56 57 57 57 58 58 57 56 57 59 61 63 65 65 65 64 63 62 61 61 61 60 59 58 57
51 44 41 36 29 34 45 45 35 22 16 30 48 48 42 39 38 39 40 40 41 41 40 39 38 38 37 36 35 34 31 31 32 33 35 38 41 44 46 48 49 51 52 52 52 52 51 50 49 46 45 44 43 43 41 40 40 41 42 45 48 51 54 56 57 59 61 61 61 60 60 61 63 64 65 66 65 65 63 61 59 59 59 59 58 58
52 49 44 39 33 35 41 35 21 11 16 29 33 28 29 31 28 30 34 35 36 35 35 35 32 29 29 30 32 34 36 37 36 35 35 36 38 41 44 45 46 47 47 47 46 45 45 45 44 43 42 41 40 40 39 39 39 39 39 39 40 43 45 48 51 54 57 60 62 63 64 64 63 63 62 62 62 62 62 60 59 58 59 59 58 57
47 45 41 38 33 28 24 18 14 14 21 25 23 23 30 30 28 30 31 30 32 33 33 32 29 27 28 30 31 32 33 34 32 30 29 29 31 33 35 37 38 40 41 43 44 46 47 47 46 46 46 45 44 44 43 42 41 40 40 40 39 40 41 42 44 47 49 52 54 57 60 63 63 62 60 59 58 57 56 56 55 56 58 59 58 58
36 36 35 33 28 22 19 21 24 26 28 31 32 32 31 31 32 32 28 26 27 29 30 29 26 25 25 25 26 27 29 30 30 30 33 37 38 40 41 42 44 46 48 49 50 52 53 53 53 53 52 51 51 50 50 49 47 45 44 43 42 41 41 41 42 42 44 45 47 48 50 53 56 57 57 57 56 54 52 52 52 53 55 57 58 58
26 27 28 27 24 22 21 19 16 15 16 20 25 24 22 23 22 21 21 23 24 25 26 24 22 21 24 27 31 34 36 38 38 38 41 43 44 45 47 48 49 51 52 53 53 54 55 55 56 56 56 55 55 55 55 54 54 53 51 50 48 46 45 44 43 43 43 43 43 43 43 44 46 49 51 53 53 52 51 50 50 51 51 53 55 56
21 19 21 25 25 24 21 13 9 10 12 13 16 18 18 17 18 19 19 20 21 21 20 19 20 24 31 37 39 40 41 43 45 46 45 45 46 46 47 49 49 50 50 50 51 51 52 53 54 55 55 55 54 54 54 55 56 56 55 54 53 52 51 50 48 47 46 45 45 45 44 43 43 44 45 47 47 47 48 47 48 48 48 49 51 52
17 15 17 24 27 28 27 21 17 18 19 16 17 20 20 24 27 22 13 11 15 17 18 22 28 34 40 42 41 40 40 41 44 46 46 46 47 45 46 47 47 47 48 48 49 49 50 51 52 53 53 52 51 51 50 51 53 53 53 53 52 52 52 53 54 52 51 49 49 48 47 46 46 45 44 44 44 43 43 43 44 45 45 45 46 48
18 18 18 22 26 28 30 27 24 26 29 29 29 29 30 32 28 21 20 25 27 25 27 33 38 41 43 42 40 40 41 41 42 43 45 46 46 44 44 44 44 45 45 46 47 48 49 49 50 50 51 51 50 50 49 49 50 50 49 49 49 50 51 53 55 56 55 54 53 52 51 50 49 49 48 47 46 45 43 42 42 42 42 42 41 42
21 20 18 22 26 28 31 29 25 27 32 32 30 28 28 27 25 25 30 33 32 33 36 40 43 44 42 40 40 40 41 41 42 43 43 44 44 44 44 43 44 45 45 46 47 47 47 48 48 47 48 47 47 47 47 48 49 49 48 47 47 48 49 51 52 54 55 56 55 55 55 54 53 53 52 51 50 49 46 44 43 42 41 40 39 38
22 19 18 21 22 22 24 21 15 16 22 22 21 22 23 25 28 33 37 38 40 43 44 43 43 42 39 38 39 40 41 42 43 44 44 44 46 46 46 45 46 47 48 48 48 48 49 49 50 49 49 48 46 45 46 47 48 49 48 48 48 48 48 48 49 50 51 53 54 55 55 56 56 56 55 55 54 54 52 49 47 46 44 43 41 39
26 25 25 27 25 22 21 19 17 19 23 24 26 29 32 35 38 41 44 46 46 44 42 41 41 39 38 39 40 40 42 44 44 45 45 46 47 47 48 48 48 49 50 50 50 50 51 52 53 53 52 51 49 48 48 49 50 50 49 49 50 50 50 49 49 49 49 49 51 52 53 55 56 56 57 56 56 56 56 54 51 50 48 46 45 42
27 24 23 27 29 28 28 30 33 34 34 35 38 41 42 43 43 43 45 46 44 42 42 42 41 39 39 40 41 42 43 44 44 45 45 46 47 49 49 50 51 51 52 52 52 52 52 54 55 56 56 54 52 51 52 52 53 54 52 53 54 54 54 54 54 53 52 50 50 50 51 52 54 54 55 55 56 57 57 56 55 53 51 49 48 46
33 31 29 33 37 38 39 43 45 45 43 43 44 44 43 44 43 42 43 44 43 42 42 40 41 41 41 41 42 43 43 43 44 45 45 47 48 49 51 52 52 53 54 54 54 54 54 55 57 58 59 58 55 54 55 56 57 59 58 58 59 59 59 59 58 57 57 55 54 53 52 52 53 53 52 52 54 55 55 55 55 55 53 51 50 48
39 38 36 39 41 42 45 48 47 45 45 46 45 45 44 43 41 40 41 41 41 41 41 41 42 44 43 43 44 44 44 44 45 46 47 48 50 51 53 54 54 55 55 56 56 55 55 57 58 59 60 60 58 57 58 59 60 62 63 63 63 63 63 63 63 62 61 60 59 58 57 55 54 54 53 52 52 53 54 53 53 54 54 52 51 50
42 40 38 40 41 41 45 50 49 46 46 46 45 44 42 40 40 40 40 41 43 44 45 45 45 45 45 45 44 44 45 45 46 48 48 49 51 53 54 55 56 56 57 56 56 57 57 58 59 60 61 61 60 60 62 63 63 64 66 67 67 67 68 67 67 67 66 64 64 63 61 60 58 56 55 53 52 52 52 52 52 53 54 53 51 51
41 41 41 41 41 44 49 52 50 48 47 45 43 41 40 40 41 42 42 43 44 45 45 45 44 45 45 44 44 45 46 46 47 49 49 50 52 54 55 56 57 57 58 58 58 58 60 61 61 62 62 62 63 64 66 68 68 68 70 72 72 73 73 72 72 72 71 69 68 67 66 65 63 60 58 57 55 53 52 52 52 54 54 53 52 51
42 44 44 42 42 48 52 52 48 47 48 46 44 41 41 41 41 42 43 43 42 42 42 42 42 43 44 45 45 46 47 47 48 49 50 52 54 55 56 57 57 58 59 59 60 61 62 62 63 64 64 64 65 67 69 71 72 73 74 75 76 77 77 77 77 76 74 72 70 69 68 67 66 63 61 59 57 55 54 52 52 53 54 54 52 52
45 46 45 44 46 50 52 50 48 48 48 47 44 42 42 42 42 43 44 43 42 42 43 43 44 44 44 45 45 46 47 48 48 50 53 54 55 56 57 58 59 60 61 61 62 63 64 64 65 66 67 67 68 69 71 73 74 75 76 78 79 80 80 80 79 78 76 74 71 69 68 67 66 64 62 59 58 57 56 54 53 53 53 53 53 52
Wind_Direction
273 270 266 265 269 274 277 279 282 287 287 285 284 283 283 283 284 286 290 295 299 292 288 290 290 290 291 291 291 289 287 285 284 287 289 291 293 293 293 293 293 294 295 294 289 283 280 276 272 269 267 265 264 262 260 259 258 259 259 259 260 262 263 264 265 266 267 267 267 266 266 265 264 264 264 264 263 262 260 257 255 254 254 254 253 254
271 267 266 270 277 281 282 282 281 281 279 279 280 281 281 280 284 290 293 297 299 290 289 295 294 291 291 291 289 288 286 286 288 290 291 292 293 293 293 295 297 299 298 294 289 284 279 274 269 268 268 267 264 261 258 257 257 258 259 260 261 262 264 265 266 267 268 269 269 268 265 261 258 259 260 260 261 261 260 257 255 254 253 252 251 251
266 265 269 277 281 282 280 278 276 276 277 277 278 278 278 281 288 293 295 298 299 292 293 299 296 291 291 291 290 288 287 289 292 293 294 296 295 296 298 301 303 305 303 297 291 284 278 272 270 267 266 265 261 258 256 256 256 257 258 261 263 264 265 267 268 269 270 269 267 264 259 255 253 255 256 256 254 254 253 252 251 251 250 249 248 248
264 268 276 280 281 278 276 274 273 275 276 276 276 274 277 284 289 289 293 300 299 295 296 300 296 292 294 295 291 289 291 293 295 297 298 299 301 304 305 305 315 326 324 312 304 293 282 274 270 267 264 262 259 256 255 254 254 256 258 261 262 264 266 267 269 269 268 265 261 258 255 253 252 253 254 254 253 252 251 250 250 249 247 246 245 245
268 273 279 278 276 275 274 272 272 274 277 277 276 274 279 287 289 288 294 299 297 295 296 302 300 295 299 302 292 296 299 299 301 300 302 307 310 313 309 310 342 341 337 330 328 327 310 292 279 271 263 259 256 254 254 253 255 258 261 264 265 265 266 266 266 266 264 262 260 258 256 255 255 255 256 258 259 258 256 257 256 253 249 246 245 245
272 275 277 276 274 273 273 273 273 275 277 277 276 278 284 291 292 291 296 299 296 296 298 307 309 299 299 295 292 300 302 301 304 305 309 315 318 319 149 2 346 337 337 357 350 344 332 317 302 285 270 261 256 253 254 256 259 263 266 268 269 267 265 263 262 262 263 262 261 261 260 259 259 259 262 264 266 264 263 264 261 255 251 249 247 247
273 276 275 275 275 273 271 272 275 274 273 274 278 286 291 292 292 293 298 295 289 292 294 295 293 292 296 296 298 304 304 305 310 313 317 323 336 143 144 339 338 321 309 343 338 333 326 315 307 297 281 270 262 257 257 258 260 265 269 272 271 269 265 261 260 262 265 265 265 264 265 264 263 263 265 266 265 262 260 258 255 252 250 248 246 247
273 278 277 278 277 272 268 273 282 279 271 274 284 293 290 290 292 293 294 286 284 290 290 284 269 274 290 294 299 304 305 313 317 321 328 345 143 138 338 330 329 276 287 320 323 324 320 303 292 288 283 279 270 261 258 257 261 270 276 277 273 269 265 261 261 265 269 271 270 269 268 267 267 267 266 263 261 259 256 252 250 249 248 244 243 243
273 276 277 278 275 275 278 283 288 284 275 279 288 290 286 288 288 286 287 283 287 293 288 279 259 249 280 286 292 299 305 324 336 344 33 143 144 99 329 326 306 218 284 310 320 318 309 292 279 276 278 280 276 264 256 257 266 277 282 281 277 272 268 263 262 268 273 275 274 271 270 269 268 266 263 261 259 258 256 253 250 246 243 241 240 238
274 277 278 275 274 280 287 288 286 282 278 280 285 285 283 283 280 279 282 281 285 285 275 257 237 227 282 285 290 303 313 348 20 66 142 148 135 332 325 301 191 256 284 308 319 313 303 294 274 271 273 273 275 270 263 264 271 278 281 283 281 277 272 265 263 270 276 277 274 272 271 270 269 266 264 262 260 258 257 255 251 244 238 236 236 234
277 277 275 275 280 286 288 288 286 283 279 278 279 280 280 279 278 276 271 272 280 273 265 260 256 240 276 286 294 320 333 43 47 62 156 177 283 322 328 263 273 278 285 308 314 303 300 295 275 271 269 265 269 270 270 272 274 279 282 284 283 279 273 267 267 272 277 275 272 270 268 267 267 267 265 263 261 260 258 256 253 244 236 233 232 232
278 277 279 283 289 291 288 287 284 282 279 277 274 271 275 280 278 272 257 248 224 264 269 270 264 234 234 266 285 258 283 323 310 294 260 268 291 308 311 300 298 289 285 296 299 289 287 285 276 274 271 271 270 267 268 270 274 280 284 285 283 277 272 270 271 274 274 271 269 267 265 264 264 265 265 264 262 260 259 256 249 240 235 232 231 233
280 280 284 289 288 285 281 277 274 275 274 271 265 258 260 284 290 268 224 212 209 248 266 264 229 223 244 261 270 271 281 292 290 286 282 287 296 300 302 304 298 286 280 283 287 284 275 272 276 272 269 274 275 271 267 268 276 285 286 283 278 275 276 274 272 270 268 267 266 265 263 262 261 261 262 261 260 259 258 253 245 237 232 231 232 237
284 281 280 280 281 279 274 269 270 274 273 269 263 250 233 213 287 262 248 268 250 251 255 240 219 236 259 270 278 281 288 294 291 292 293 294 298 299 303 305 294 277 276 279 282 281 279 281 288 287 280 278 280 281 276 272 281 291 288 279 274 275 275 271 266 264 265 266 265 262 261 260 260 259 259 258 258 257 255 250 244 237 232 232 236 241
279 278 276 273 273 275 274 272 273 275 273 270 267 255 238 233 231 236 238 241 270 274 242 203 203 241 266 275 283 287 290 290 291 294 295 296 298 300 303 303 291 270 268 274 272 276 282 283 284 290 296 294 289 284 278 277 280 285 285 277 273 271 261 252 254 260 264 266 266 265 262 259 257 258 260 262 261 259 254 248 242 236 234 238 242 245
270 272 277 275 269 270 271 272 270 266 263 262 258 244 239 245 248 250 253 257 272 299 247 211 229 261 271 278 282 284 285 287 292 294 294 296 303 310 308 296 277 255 263 277 276 276 276 273 276 284 292 304 305 291 275 273 273 275 276 272 269 262 247 241 248 257 262 264 265 267 267 265 262 260 264 268 269 266 259 250 244 241 243 247 249 250
270 271 275 275 267 263 261 261 260 255 252 252 245 239 247 256 257 254 258 262 265 276 261 253 259 269 276 282 282 282 287 292 296 290 282 292 307 310 303 287 266 267 280 285 278 271 268 269 275 281 284 291 299 297 281 267 266 271 273 270 263 253 245 242 247 252 257 261 264 264 265 269 269 269 270 271 270 266 261 256 253 254 255 256 257 258
263 266 269 271 270 268 264 262 256 249 248 247 248 258 267 268 261 253 252 261 250 249 258 252 259 270 276 279 279 281 286 289 287 280 283 298 307 305 295 287 282 280 278 272 264 260 273 287 286 283 285 285 289 295 291 277 266 266 271 270 257 247 246 244 246 249 250 254 260 261 262 264 265 267 268 268 265 262 261 261 261 263 263 263 263 264
259 261 270 272 269 266 266 264 255 245 244 247 252 259 262 260 255 240 223 241 246 248 256 239 250 261 260 265 273 276 278 281 282 284 293 302 303 300 295 292 287 278 267 258 256 261 275 288 291 289 290 288 288 295 297 290 276 266 268 269 258 248 245 241 241 244 247 248 252 256 258 259 259 260 261 261 261 261 262 263 264 265 265 265 266 265
263 260 269 271 268 265 266 264 262 259 259 257 253 251 251 253 255 242 231 241 248 252 262 245 243 250 254 263 271 274 276 279 280 283 289 292 295 297 294 289 280 268 260 260 266 272 276 279 283 288 295 295 292 294 300 297 285 275 272 268 260 251 247 242 238 237 237 238 240 247 253 257 259 259 258 256 254 256 259 263 265 265 264 264 265 266
262 250 254 266 270 270 268 268 271 272 270 261 250 244 244 247 252 254 249 249 252 259 266 255 248 242 249 260 268 272 275 277 280 284 287 289 292 293 285 278 272 266 270 276 275 274 277 277 274 276 286 293 292 291 295 294 286 282 280 272 261 253 249 247 240 232 231 233 239 248 254 259 261 261 262 261 257 254 253 256 259 261 262 262 261 262
254 247 250 260 265 267 269 273 277 276 271 263 255 251 252 254 256 261 259 249 248 245 243 255 259 243 249 261 272 276 278 282 287 289 287 287 289 287 282 279 280 280 281 283 281 279 281 283 281 279 282 287 288 284 283 283 282 283 282 271 259 253 251 248 239 228 230 242 250 254 256 257 260 264 267 268 267 263 259 257 256 256 258 258 259 260
261 264 261 259 263 269 273 275 275 275 274 270 266 263 263 261 255 251 251 253 250 249 254 263 265 253 258 269 277 281 285 289 290 287 288 290 289 287 286 284 284 285 284 284 285 285 286 287 287 285 282 281 279 275 272 274 277 278 275 263 253 250 248 244 236 230 235 247 251 254 256 258 262 269 273 273 273 271 268 265 260 256 254 255 255 256
265 265 262 263 269 272 275 275 272 272 271 266 264 265 263 261 257 254 255 260 262 260 261 264 261 261 270 276 279 282 287 288 287 287 290 293 292 292 291 288 287 287 287 287 286 286 286 286 285 283 280 275 271 268 268 268 269 269 264 255 247 243 239 238 238 242 250 256 257 258 262 263 268 276 280 280 278 275 273 268 261 256 253 254 253 253
264 260 259 268 278 276 274 274 270 267 265 261 264 268 266 265 264 260 259 261 263 258 256 258 261 265 272 279 279 283 286 285 285 289 291 292 293 294 293 292 292 291 291 291 290 289 288 287 286 283 281 278 273 269 265 263 262 261 257 251 244 241 239 240 243 251 261 266 266 267 268 270 275 282 284 283 279 276 273 270 264 255 251 252 254 254
264 260 256 254 257 264 266 264 266 271 274 271 270 271 272 273 271 268 262 258 258 257 252 250 261 268 271 274 275 277 280 281 284 288 289 290 291 291 291 292 294 295 295 294 293 293 291 290 289 285 281 280 278 275 270 265 262 260 258 255 250 247 245 246 248 252 260 266 269 269 270 273 278 282 283 282 280 277 273 272 268 258 250 250 254 255
257 257 254 250 250 254 260 264 268 273 276 276 275 274 275 274 274 274 264 252 256 262 256 253 264 271 270 269 271 275 280 283 284 285 286 287 288 288 288 289 290 292 295 295 294 293 292 291 290 288 287 286 283 280 276 272 268 266 265 264 262 258 254 253 252 253 256 262 266 268 271 273 276 278 279 279 279 278 273 270 267 259 252 250 253 255
264 266 263 262 262 262 265 269 272 273 273 273 274 274 273 272 273 273 267 262 265 266 261 262 266 268 269 273 281 287 287 284 282 281 282 284 286 286 286 285 286 287 289 290 290 290 290 289 289 288 289 289 287 282 279 278 277 275 274 273 271 270 267 264 262 260 260 261 264 268 271 273 274 275 276 276 277 275 272 267 264 260 255 252 253 255
274 274 273 273 271 269 270 272 273 272 271 272 275 276 276 275 276 275 273 274 273 266 265 270 270 274 281 285 287 287 285 282 281 280 280 281 282 283 283 284 285 285 285 286 286 287 288 290 290 290 290 288 286 284 280 278 278 280 281 280 279 278 277 275 272 271 269 267 267 269 272 274 275 275 275 275 275 274 272 269 266 262 258 256 256 257
271 273 273 271 271 267 262 263 266 267 271 277 280 282 281 278 276 276 278 282 282 277 277 279 280 282 284 283 282 282 282 283 282 281 281 281 280 281 281 282 282 283 284 285 286 287 288 290 291 291 290 287 285 285 285 281 280 282 284 284 284 284 282 280 277 275 274 273 272 272 273 275 276 276 276 275 275 275 274 273 271 268 263 260 259 258
266 268 264 266 278 275 264 264 270 275 282 287 286 286 285 280 277 278 282 286 284 280 281 282 282 281 279 276 276 276 276 277 278 278 279 278 279 279 279 280 281 282 283 284 286 287 288 289 290 290 290 289 286 285 285 284 282 282 282 281 282 283 283 281 279 276 275 275 276 276 276 277 277 277 277 276 275 275 276 275 274 272 269 266 263 260
267 272 272 278 287 284 278 280 282 285 288 286 281 281 280 278 278 280 283 284 280 278 278 277 276 274 273 273 273 270 269 270 269 270 272 272 273 275 276 278 279 281 283 284 285 286 288 289 290 290 290 289 288 286 283 281 280 280 279 279 279 280 281 280 279 278 276 276 276 277 278 278 279 279 280 279 277 276 276 276 275 273 272 270 267 262
274 278 282 285 284 281 284 286 287 293 296 282 277 280 280 280 280 281 280 278 274 272 272 272 273 273 274 274 272 268 265 263 263 265 266 268 270 273 275 278 280 283 285 287 289 289 290 290 290 290 289 288 287 286 283 280 277 276 275 276 277 278 279 279 278 278 278 278 278 278 278 278 279 279 280 280 280 279 278 277 276 273 271 269 268 265
278 280 282 281 275 277 284 288 290 292 280 275 281 284 284 283 281 277 275 272 270 269 270 272 273 274 273 272 271 269 269 269 271 274 275 275 276 276 277 279 281 283 285 286 288 289 289 289 289 289 289 288 288 287 285 283 280 277 274 272 272 274 275 275 275 275 276 277 278 279 280 279 279 279 280 280 281 281 281 279 276 272 269 267 266 265
279 279 278 274 268 271 280 286 290 282 267 279 288 288 283 283 281 276 274 272 273 274 274 275 274 272 273 273 274 275 277 277 277 279 281 281 280 279 279 280 281 283 284 286 288 290 291 292 292 291 292 291 291 291 290 288 286 283 280 278 275 272 271 270 270 270 271 271 273 275 278 279 280 280 281 281 282 282 281 279 275 271 267 265 263 262
279 278 274 267 263 266 267 258 253 268 277 281 284 281 280 280 278 276 273 271 274 275 276 276 277 277 276 276 276 276 276 277 276 279 286 290 290 288 287 287 289 290 291 293 296 297 299 300 299 298 298 297 298 297 296 295 293 290 288 287 286 282 278 274 271 268 266 266 267 269 271 274 277 278 279 280 280 280 279 277 273 268 264 261 259 257
275 271 265 260 256 255 249 244 256 273 280 278 278 280 279 275 272 273 273 272 272 274 278 278 276 276 275 277 281 284 286 285 282 286 296 302 303 302 301 299 299 299 299 300 301 302 304 305 305 304 303 302 302 302 301 300 298 296 294 293 293 291 288 285 281 276 270 267 265 265 265 266 268 270 272 273 274 275 275 274 272 268 263 259 256 255
267 262 259 253 249 251 255 260 269 273 276 279 280 279 275 269 267 272 280 282 278 277 279 276 272 278 288 295 300 303 303 300 295 296 305 309 308 308 308 306 305 305 304 305 305 305 306 306 306 307 307 307 306 306 306 304 302 301 299 298 296 295 294 292 289 286 282 276 272 269 267 266 264 263 263 264 265 267 269 269 269 266 263 260 257 255
264 259 254 247 247 251 254 258 261 262 271 281 279 275 274 271 276 291 298 294 287 281 277 275 281 294 303 308 310 310 309 306 301 300 304 308 308 309 308 308 307 307 307 308 308 308 308 308 308 308 308 308 308 309 308 307 306 305 303 302 301 300 298 295 293 291 289 286 282 278 276 274 272 268 264 261 261 262 263 265 265 264 262 259 257 256
266 257 245 240 243 247 250 253 258 260 264 269 266 267 273 281 291 300 298 285 286 284 281 288 297 304 308 310 310 308 307 306 304 303 303 304 305 306 306 306 307 307 307 308 309 309 308 308 308 308 308 308 309 309 309 309 308 307 306 306 305 304 302 299 296 294 291 290 288 285 283 281 279 277 273 269 266 265 265 265 265 264 263 261 260 258
267 258 248 245 248 250 251 256 261 261 263 268 270 271 276 282 285 281 272 275 283 285 288 296 302 306 307 306 305 303 303 304 305 305 304 303 303 304 305 306 306 307 308 308 309 309 308 307 307 306 306 307 308 309 309 309 308 307 307 307 306 305 304 302 299 296 294 292 290 288 286 285 284 282 281 278 274 271 269 270 270 269 267 266 265 264
270 265 256 253 256 256 254 257 264 268 269 271 273 274 276 276 272 273 279 285 288 290 293 297 300 303 304 303 301 301 302 302 303 303 304 303 303 304 305 306 306 307 308 309 309 308 307 306 306 305 305 305 305 305 306 307 307 306 306 306 306 305 304 302 300 298 296 294 292 290 288 287 285 285 284 282 280 277 273 272 273 274 272 271 271 270
267 269 265 259 260 262 257 252 255 265 268 270 272 273 273 273 277 283 288 291 293 294 295 296 299 301 301 300 299 300 300 301 301 301 302 303 303 304 305 305 306 306 307 307 307 306 304 304 304 305 305 305 304 303 303 304 305 305 305 306 305 304 303 302 300 299 297 295 293 292 290 288 287 286 285 284 283 281 278 276 275 275 276 275 274 273
262 262 264 266 266 261 253 250 254 262 268 273 277 278 278 281 286 290 292 293 293 293 293 296 300 300 298 298 299 298 297 297 297 298 299 300 301 302 302 303 304 304 304 304 304 303 301 301 301 302 302 303 302 301 301 302 303 303 305 306 305 303 302 300 299 298 297 295 294 292 291 289 288 286 285 284 283 282 281 280 278 277 277 277 277 275
263 262 266 270 269 263 259 263 267 269 272 275 277 280 284 287 290 292 292 291 290 290 293 297 300 298 297 297 297 296 295 294 294 295 297 298 299 299 300 300 301 301 301 301 300 300 298 298 298 299 299 300 300 299 299 300 301 303 304 304 304 303 301 300 300 299 297 296 294 293 291 289 288 287 285 284 283 282 281 281 281 280 279 278 278 277
272 274 273 273 274 273 271 271 272 273 276 279 280 283 287 289 292 294 293 292 293 293 295 295 296 296 296 294 295 295 294 294 294 295 296 298 298 298 298 298 299 299 298 298 297 297 296 295 295 296 296 297 297 297 297 298 299 301 302 302 302 301 301 300 300 299 298 297 295 294 292 290 288 287 286 284 282 280 279 279 280 280 279 278 277 277
282 282 278 276 277 276 275 277 280 282 284 286 288 289 291 292 295 297 296 296 295 295 293 291 292 294 293 292 293 293 293 295 296 296 297 297 297 297 297 297 297 296 296 295 295 294 294 293 293 293 293 293 294 295 296 296 296 297 299 299 299 299 299 298 298 297 297 296 295 294 293 291 289 287 286 284 282 279 277 276 276 276 276 276 276 275
285 285 281 279 278 276 277 283 287 287 289 293 295 295 296 298 299 299 299 297 296 293 291 289 289 291 291 292 293 295 296 296 297 298 297 296 295 296 296 296 296 295 294 293 293 293 292 292 292 291 290 290 291 292 293 294 294 294 295 296 297 297 297 296 296 295 295 294 294 293 292 291 290 287 285 284 282 280 277 275 273 272 272 272 272 272
284 281 279 279 279 278 280 285 290 290 293 298 300 300 301 301 299 299 299 299 298 295 290 287 287 288 291 293 295 297 297 297 297 298 297 296 295 295 295 295 294 294 293 293 292 292 292 292 292 290 288 288 289 289 290 291 292 293 294 295 295 296 295 295 294 294 293 293 292 291 291 290 289 288 286 283 282 280 277 275 272 270 269 268 269 269
277 276 277 276 274 277 283 289 293 293 293 297 301 302 302 300 298 297 297 297 296 294 291 290 289 290 292 294 296 297 297 297 297 297 296 295 295 295 295 295 294 293 293 293 292 292 292 291 291 289 288 287 287 287 288 289 290 291 292 293 293 294 294 293 293 293 293 292 291 290 289 288 287 287 285 283 281 279 277 274 272 269 267 265 265 265
276 279 280 277 274 279 287 293 295 292 291 295 300 300 298 296 295 294 295 296 296 295 294 294 293 293 293 294 295 296 296 297 297 297 296 295 295 295 295 295 294 293 293 292 292 291 291 290 290 289 288 287 287 287 287 287 288 289 290 291 291 292 292 292 292 292 292 292 291 289 288 286 285 284 283 281 280 278 276 274 271 268 266 263 262 261
Height
3128 3124 3120 3122 3125 3127 3128 3127 3125 3124 3124 3122 3120 3119 3117 3114 3110 3112 3114 3116 3118 3106 3096 3100 3093 3087 3091 3092 3095 3097 3096 3095 3095 3096 3094 3093 3093 3091 3090 3089 3088 3087 3085 3087 3087 3088 3088 3087 3086 3086 3086 3086 3085 3085 3085 3086 3086 3086 3086 3086 3086 3086 3086 3086 3087 3087 3087 3088 3089 3089 3090 3091 3091 3091 3092 3092 3093 3094 3095 3097 3097 3098 3099 3100 3101 3102
3122 3115 3114 3119 3123 3124 3125 3124 3123 3121 3120 3118 3117 3115 3112 3111 3107 3107 3111 3112 3114 3102 3090 3094 3086 3078 3084 3086 3088 3092 3090 3089 3090 3092 3091 3090 3089 3086 3085 3084 3084 3083 3082 3081 3082 3082 3083 3082 3082 3082 3081 3081 3081 3081 3081 3081 3081 3081 3080 3080 3081 3081 3081 3082 3082 3083 3083 3084 3085 3085 3086 3087 3087 3087 3087 3088 3089 3090 3091 3092 3092 3094 3095 3096 3097 3098
3114 3108 3112 3120 3121 3122 3121 3120 3119 3117 3117 3115 3114 3112 3107 3108 3105 3102 3106 3108 3109 3100 3088 3090 3079 3067 3076 3079 3081 3086 3084 3084 3086 3086 3087 3086 3084 3083 3081 3081 3080 3079 3078 3077 3076 3077 3077 3077 3077 3077 3076 3076 3076 3076 3076 3076 3076 3075 3076 3076 3077 3076 3077 3078 3078 3078 3079 3080 3080 3081 3081 3081 3081 3081 3082 3083 3084 3085 3085 3085 3087 3088 3089 3090 3091 3093
3107 3106 3113 3118 3118 3117 3116 3116 3116 3114 3113 3110 3110 3109 3103 3106 3106 3098 3100 3104 3104 3098 3089 3087 3072 3056 3066 3071 3071 3079 3079 3079 3081 3080 3081 3081 3080 3079 3077 3077 3077 3075 3074 3073 3073 3073 3072 3073 3073 3072 3072 3072 3071 3071 3071 3071 3071 3071 3071 3072 3072 3072 3073 3073 3073 3074 3075 3075 3075 3075 3075 3075 3075 3076 3077 3077 3078 3079 3079 3080 3082 3083 3084 3085 3087 3088
3102 3106 3113 3114 3113 3112 3112 3112 3113 3112 3109 3105 3105 3105 3101 3103 3105 3098 3099 3099 3097 3095 3090 3087 3069 3048 3056 3063 3063 3072 3074 3072 3074 3074 3075 3076 3074 3074 3073 3073 3073 3072 3071 3071 3071 3071 3071 3070 3070 3069 3068 3068 3067 3068 3067 3067 3067 3067 3068 3068 3068 3068 3068 3069 3069 3069 3069 3070 3070 3070 3070 3070 3070 3071 3071 3072 3073 3074 3075 3077 3078 3079 3080 3081 3083 3084
3097 3106 3109 3108 3108 3108 3108 3107 3110 3110 3105 3099 3099 3102 3101 3100 3101 3099 3099 3097 3091 3091 3089 3090 3076 3049 3046 3058 3059 3063 3066 3065 3067 3069 3069 3070 3069 3068 3069 3070 3071 3071 3070 3069 3070 3070 3070 3069 3068 3066 3065 3064 3064 3064 3063 3063 3064 3065 3065 3065 3064 3064 3064 3065 3065 3065 3065 3065 3065 3065 3065 3066 3066 3067 3068 3069 3070 3071 3073 3074 3075 3075 3076 3078 3079 3080
3094 3102 3105 3104 3104 3104 3104 3103 3106 3108 3102 3096 3095 3100 3100 3098 3098 3096 3098 3096 3090 3088 3086 3090 3088 3062 3041 3046 3054 3056 3059 3061 3062 3064 3063 3064 3064 3065 3067 3068 3070 3070 3069 3068 3068 3068 3068 3066 3066 3065 3063 3062 3061 3061 3061 3061 3062 3062 3063 3062 3061 3061 3061 3061 3061 3060 3061 3061 3061 3061 3062 3062 3062 3063 3065 3066 3066 3067 3069 3070 3070 3070 3072 3073 3075 3076
3093 3098 3100 3101 3100 3100 3101 3101 3103 3105 3102 3095 3094 3098 3098 3096 3096 3094 3094 3094 3089 3087 3083 3083 3090 3080 3049 3037 3046 3051 3053 3057 3058 3058 3058 3059 3061 3062 3064 3066 3067 3068 3066 3066 3066 3065 3064 3063 3062 3062 3061 3060 3059 3059 3059 3059 3060 3060 3060 3059 3059 3058 3058 3058 3057 3057 3057 3057 3057 3058 3058 3058 3058 3059 3061 3061 3061 3062 3063 3063 3064 3065 3067 3068 3070 3071
3094 3095 3096 3097 3097 3096 3098 3099 3100 3102 3100 3095 3095 3096 3095 3095 3093 3091 3091 3090 3089 3086 3079 3076 3084 3086 3059 3037 3044 3050 3050 3054 3054 3054 3055 3056 3059 3060 3062 3064 3065 3066 3064 3064 3065 3062 3060 3059 3058 3058 3058 3057 3057 3056 3057 3057 3057 3057 3057 3056 3055 3055 3054 3054 3054 3054 3054 3054 3053 3053 3053 3054 3054 3055 3055 3055 3056 3056 3057 3058 3058 3060 3062 3064 3065 3067
3093 3093 3092 3093 3093 3094 3095 3096 3097 3097 3097 3094 3095 3093 3092 3093 3090 3090 3089 3087 3090 3084 3074 3075 3080 3084 3061 3035 3042 3049 3047 3052 3051 3051 3055 3055 3056 3059 3061 3062 3062 3063 3062 3061 3062 3060 3057 3056 3055 3054 3054 3054 3053 3053 3054 3054 3054 3054 3053 3053 3052 3052 3051 3051 3051 3051 3051 3050 3049 3050 3049 3050 3050 3050 3050 3050 3051 3051 3052 3053 3054 3055 3057 3059 3060 3062
3091 3089 3088 3088 3090 3091 3092 3093 3092 3093 3093 3092 3093 3091 3090 3090 3087 3088 3086 3084 3089 3079 3070 3072 3076 3083 3065 3035 3039 3047 3046 3050 3051 3052 3055 3054 3055 3057 3059 3061 3060 3060 3059 3058 3058 3057 3056 3053 3052 3051 3051 3051 3050 3049 3050 3050 3050 3049 3049 3049 3048 3048 3048 3048 3048 3047 3047 3046 3046 3046 3046 3046 3046 3045 3045 3046 3047 3047 3048 3049 3050 3051 3053 3054 3056 3058
3087 3085 3085 3085 3087 3088 3088 3089 3088 3089 3089 3089 3090 3089 3088 3087 3084 3084 3082 3084 3086 3074 3067 3069 3071 3078 3061 3033 3038 3046 3044 3049 3051 3052 3054 3053 3054 3056 3057 3059 3058 3058 3057 3055 3054 3053 3052 3050 3048 3048 3047 3048 3047 3046 3045 3045 3045 3045 3045 3045 3045 3045 3045 3045 3044 3044 3043 3043 3042 3043 3042 3042 3042 3041 3041 3042 3043 3044 3044 3045 3046 3047 3049 3051 3053 3054
3081 3081 3082 3082 3083 3085 3085 3085 3084 3084 3085 3085 3085 3087 3087 3086 3084 3082 3080 3081 3079 3068 3064 3067 3070 3068 3047 3031 3039 3044 3043 3047 3048 3050 3051 3050 3051 3052 3053 3055 3055 3055 3053 3050 3049 3048 3047 3046 3045 3045 3044 3044 3043 3043 3042 3040 3040 3041 3040 3041 3041 3042 3041 3041 3041 3040 3040 3039 3039 3039 3038 3038 3037 3037 3038 3038 3039 3040 3041 3042 3042 3044 3046 3048 3050 3052
3077 3075 3077 3079 3079 3080 3081 3081 3080 3079 3080 3080 3080 3082 3084 3085 3083 3080 3079 3077 3071 3064 3062 3066 3068 3058 3038 3032 3039 3040 3042 3044 3044 3046 3046 3046 3047 3047 3048 3050 3050 3050 3048 3046 3046 3045 3045 3043 3042 3042 3041 3040 3039 3038 3038 3037 3037 3037 3037 3037 3037 3037 3037 3037 3037 3037 3037 3037 3036 3035 3035 3034 3034 3034 3035 3035 3035 3036 3037 3038 3039 3041 3043 3046 3048 3050
3076 3071 3070 3075 3076 3076 3076 3077 3077 3076 3075 3075 3075 3076 3076 3075 3075 3074 3072 3069 3063 3061 3062 3064 3061 3048 3035 3034 3036 3038 3041 3041 3041 3043 3042 3042 3043 3043 3044 3045 3045 3045 3044 3043 3043 3043 3042 3040 3039 3038 3037 3037 3035 3034 3034 3034 3034 3033 3033 3033 3033 3033 3033 3033 3034 3034 3034 3034 3033 3033 3032 3031 3031 3031 3032 3032 3033 3034 3034 3036 3037 3038 3041 3043 3045 3046
3074 3068 3066 3070 3071 3072 3072 3073 3074 3073 3072 3071 3071 3072 3069 3067 3068 3068 3065 3063 3062 3061 3060 3058 3050 3040 3035 3033 3034 3037 3037 3037 3039 3039 3039 3039 3039 3040 3041 3042 3042 3042 3041 3040 3039 3039 3038 3037 3036 3035 3034 3034 3032 3031 3030 3030 3030 3030 3029 3028 3029 3029 3029 3029 3030 3031 3032 3031 3031 3030 3030 3029 3029 3028 3029 3030 3031 3032 3033 3034 3035 3037 3039 3040 3041 3042
3072 3066 3065 3066 3067 3068 3068 3068 3070 3070 3069 3068 3067 3066 3065 3066 3066 3065 3062 3061 3062 3059 3054 3050 3043 3037 3037 3032 3030 3034 3033 3035 3037 3036 3035 3036 3036 3038 3040 3039 3040 3039 3038 3037 3036 3036 3035 3034 3033 3031 3030 3029 3028 3028 3027 3026 3026 3026 3025 3025 3025 3026 3027 3027 3027 3028 3028 3028 3028 3028 3027 3027 3027 3027 3027 3028 3029 3030 3031 3032 3033 3035 3036 3036 3037 3038
3070 3064 3062 3063 3063 3064 3065 3064 3065 3066 3065 3064 3064 3064 3064 3064 3063 3063 3061 3059 3059 3054 3047 3045 3040 3037 3039 3030 3026 3031 3032 3032 3034 3033 3033 3034 3034 3036 3037 3037 3037 3035 3035 3034 3032 3032 3030 3029 3028 3027 3026 3025 3024 3023 3023 3023 3023 3022 3022 3021 3021 3022 3024 3025 3025 3024 3024 3025 3025 3024 3024 3024 3024 3024 3025 3025 3026 3027 3027 3029 3030 3031 3032 3032 3033 3033
3067 3062 3059 3059 3058 3058 3061 3060 3059 3060 3061 3061 3061 3062 3061 3060 3058 3058 3058 3055 3054 3049 3042 3040 3037 3035 3036 3028 3024 3028 3030 3029 3030 3030 3031 3032 3033 3034 3034 3035 3034 3031 3030 3029 3028 3028 3026 3025 3023 3023 3022 3021 3019 3018 3018 3019 3020 3020 3019 3018 3018 3017 3018 3019 3020 3021 3021 3021 3021 3021 3020 3020 3020 3021 3021 3021 3022 3023 3023 3024 3026 3027 3027 3028 3029 3028
3064 3062 3057 3055 3054 3054 3056 3055 3053 3054 3057 3057 3057 3058 3057 3056 3054 3053 3052 3049 3048 3044 3038 3036 3033 3030 3030 3027 3024 3024 3025 3026 3027 3027 3029 3029 3030 3031 3031 3031 3030 3028 3026 3024 3023 3023 3022 3021 3019 3018 3017 3016 3015 3014 3013 3013 3014 3015 3016 3016 3015 3014 3013 3013 3013 3015 3016 3015 3015 3015 3015 3015 3015 3015 3016 3016 3016 3017 3018 3020 3021 3022 3022 3023 3024 3023
3060 3058 3053 3052 3052 3050 3049 3049 3048 3050 3052 3052 3052 3052 3052 3052 3051 3049 3046 3045 3045 3041 3037 3034 3026 3023 3026 3027 3023 3022 3022 3023 3025 3026 3027 3027 3026 3027 3028 3026 3025 3024 3021 3019 3018 3018 3018 3017 3016 3014 3012 3011 3011 3010 3009 3009 3008 3009 3011 3012 3011 3010 3008 3008 3008 3009 3009 3008 3008 3007 3007 3007 3008 3009 3009 3010 3010 3011 3011 3013 3014 3016 3017 3017 3017 3017
3056 3053 3049 3049 3048 3044 3043 3046 3047 3046 3047 3048 3047 3048 3048 3049 3049 3046 3041 3040 3040 3035 3031 3028 3018 3015 3023 3025 3021 3020 3020 3021 3023 3023 3022 3022 3023 3023 3023 3022 3020 3019 3017 3016 3015 3014 3013 3013 3013 3012 3010 3009 3010 3010 3009 3008 3006 3005 3006 3006 3006 3005 3004 3003 3003 3002 3001 3002 3001 3000 2999 3000 3001 3002 3002 3003 3004 3005 3006 3006 3007 3009 3010 3011 3011 3011
3052 3049 3045 3043 3041 3039 3040 3043 3044 3042 3042 3043 3042 3043 3044 3044 3044 3041 3035 3033 3033 3029 3027 3024 3014 3009 3017 3022 3018 3017 3018 3018 3018 3018 3017 3017 3017 3016 3016 3015 3014 3013 3013 3012 3010 3009 3009 3009 3009 3009 3008 3008 3007 3007 3006 3004 3002 3001 3000 3000 3000 2999 2999 2998 2997 2996 2995 2994 2993 2992 2992 2993 2995 2996 2997 2998 2999 2999 3000 3001 3001 3001 3002 3003 3003 3003
3046 3044 3040 3037 3035 3035 3035 3037 3037 3035 3036 3035 3033 3036 3036 3035 3036 3034 3030 3030 3029 3025 3025 3022 3009 3003 3010 3015 3015 3015 3015 3014 3015 3015 3011 3008 3008 3007 3006 3006 3006 3006 3006 3006 3005 3004 3004 3003 3004 3003 3003 3002 3001 3000 3000 2998 2997 2996 2995 2995 2994 2993 2993 2992 2992 2991 2990 2988 2987 2986 2987 2988 2989 2991 2991 2993 2993 2993 2994 2994 2994 2994 2994 2994 2994 2995
3040 3039 3038 3036 3033 3031 3031 3032 3030 3028 3029 3028 3028 3031 3030 3029 3031 3029 3028 3029 3023 3019 3022 3015 3001 3001 3008 3010 3010 3012 3011 3012 3014 3011 3001 2999 3002 3001 2997 2997 2997 2997 2997 2998 2998 2998 2998 2998 2998 2997 2996 2995 2994 2994 2993 2992 2991 2990 2989 2989 2989 2988 2987 2987 2986 2986 2985 2984 2983 2983 2983 2983 2983 2984 2985 2986 2987 2987 2987 2986 2986 2986 2986 2986 2986 2987
3035 3034 3035 3033 3031 3029 3027 3026 3026 3025 3025 3024 3024 3026 3026 3026 3027 3025 3024 3023 3015 3013 3015 3007 2997 3000 3007 3008 3007 3009 3009 3008 3009 3003 2994 2995 2998 2994 2991 2990 2989 2989 2989 2989 2989 2989 2989 2990 2990 2991 2990 2990 2988 2987 2986 2986 2985 2984 2984 2983 2983 2982 2982 2981 2981 2980 2980 2979 2979 2978 2978 2977 2977 2977 2978 2978 2979 2979 2979 2978 2978 2978 2978 2978 2978 2979
3028 3026 3027 3027 3025 3024 3022 3021 3023 3024 3021 3020 3021 3022 3023 3023 3022 3021 3018 3013 3010 3007 3003 3001 3000 2999 3002 3004 3004 3004 3004 3002 3001 2997 2992 2990 2990 2988 2987 2986 2985 2984 2982 2981 2981 2980 2980 2980 2981 2982 2983 2983 2983 2981 2980 2979 2979 2978 2978 2977 2976 2976 2975 2974 2974 2973 2973 2972 2972 2971 2971 2971 2970 2970 2970 2970 2970 2971 2971 2971 2971 2971 2971 2970 2970 2970
3024 3021 3023 3022 3020 3020 3020 3018 3020 3020 3016 3015 3016 3016 3018 3018 3017 3016 3010 3006 3008 3003 2994 2997 3001 2995 2994 2999 2997 2996 2998 2998 2996 2994 2989 2987 2985 2984 2982 2980 2980 2980 2978 2976 2975 2974 2973 2973 2973 2974 2975 2976 2976 2975 2974 2973 2973 2972 2972 2971 2970 2969 2968 2967 2966 2965 2965 2964 2963 2963 2963 2963 2963 2963 2963 2963 2963 2963 2963 2964 2964 2964 2963 2962 2962 2962
3022 3017 3018 3018 3015 3016 3017 3014 3014 3014 3011 3010 3011 3011 3012 3011 3010 3008 3003 3002 3005 2999 2990 2994 2997 2991 2991 2994 2992 2990 2991 2990 2990 2989 2986 2985 2983 2980 2978 2975 2973 2973 2972 2972 2970 2969 2968 2967 2966 2966 2966 2968 2968 2968 2967 2967 2966 2966 2965 2965 2964 2963 2962 2960 2959 2958 2957 2956 2955 2955 2955 2955 2955 2956 2956 2956 2956 2956 2956 2956 2956 2956 2955 2955 2954 2954
3018 3013 3014 3014 3009 3009 3011 3010 3009 3008 3006 3005 3005 3006 3007 3005 3002 3000 2997 2999 2999 2993 2989 2990 2990 2988 2988 2987 2986 2986 2984 2983 2984 2983 2982 2980 2978 2976 2975 2972 2969 2967 2966 2966 2965 2964 2963 2962 2961 2960 2959 2959 2960 2961 2960 2960 2960 2959 2958 2957 2957 2956 2955 2954 2952 2951 2950 2948 2947 2946 2946 2946 2946 2947 2948 2948 2948 2948 2948 2948 2948 2947 2947 2947 2946 2946
3015 3010 3010 3009 3004 3003 3005 3005 3004 3003 3001 3000 2999 3000 3001 2998 2995 2993 2993 2994 2992 2987 2986 2986 2984 2983 2982 2980 2980 2981 2979 2978 2978 2976 2976 2975 2973 2972 2970 2967 2965 2963 2961 2961 2960 2959 2958 2957 2956 2954 2953 2953 2953 2953 2953 2953 2953 2952 2950 2950 2949 2947 2947 2946 2945 2944 2943 2941 2940 2939 2938 2937 2937 2937 2938 2938 2939 2939 2939 2939 2939 2939 2938 2938 2938 2938
3011 3006 3005 3006 3001 2997 2999 3000 2998 2998 2997 2994 2993 2993 2992 2990 2988 2988 2988 2988 2985 2982 2981 2980 2978 2977 2977 2975 2974 2974 2974 2973 2972 2970 2970 2969 2967 2966 2965 2963 2961 2959 2957 2956 2954 2954 2953 2951 2950 2948 2948 2947 2946 2946 2945 2945 2945 2944 2943 2942 2941 2940 2939 2938 2937 2936 2935 2934 2933 2932 2930 2929 2928 2928 2927 2927 2928 2929 2929 2929 2929 2929 2929 2929 2930 2930
3006 3003 3001 3003 2997 2991 2994 2995 2993 2994 2990 2984 2984 2985 2983 2983 2982 2981 2980 2981 2979 2977 2976 2974 2971 2971 2971 2971 2969 2969 2968 2968 2966 2965 2965 2964 2963 2961 2960 2958 2957 2955 2953 2951 2949 2948 2947 2946 2945 2943 2942 2941 2939 2939 2938 2937 2937 2937 2936 2935 2934 2933 2932 2931 2930 2929 2928 2927 2926 2925 2924 2923 2921 2920 2919 2918 2919 2919 2920 2920 2920 2921 2921 2921 2921 2922
3001 2999 2998 2999 2994 2987 2988 2990 2989 2989 2982 2973 2976 2980 2977 2976 2975 2974 2973 2973 2972 2971 2970 2968 2966 2965 2966 2966 2965 2964 2963 2963 2962 2960 2960 2960 2959 2957 2956 2955 2953 2951 2949 2947 2945 2943 2941 2940 2940 2939 2938 2936 2934 2933 2932 2931 2930 2929 2928 2928 2927 2926 2925 2924 2924 2922 2921 2920 2918 2917 2916 2916 2915 2914 2912 2911 2910 2910 2910 2911 2911 2912 2912 2912 2913 2913
2995 2994 2993 2994 2991 2985 2986 2989 2986 2979 2971 2968 2972 2974 2972 2970 2969 2969 2968 2966 2965 2965 2964 2963 2961 2961 2961 2961 2961 2960 2959 2958 2958 2956 2956 2955 2955 2953 2951 2950 2949 2947 2945 2943 2941 2939 2937 2936 2934 2933 2932 2931 2930 2928 2927 2925 2924 2923 2922 2920 2919 2919 2918 2917 2916 2915 2914 2914 2912 2911 2909 2908 2907 2907 2905 2904 2903 2902 2902 2902 2902 2903 2903 2903 2904 2904
2988 2988 2987 2987 2986 2982 2983 2984 2977 2967 2964 2966 2968 2968 2968 2967 2966 2965 2963 2961 2961 2961 2959 2958 2957 2957 2957 2957 2956 2956 2954 2953 2953 2952 2951 2950 2949 2948 2946 2945 2944 2942 2940 2938 2936 2934 2932 2930 2929 2928 2926 2925 2924 2922 2921 2920 2919 2918 2916 2915 2913 2912 2911 2910 2908 2907 2906 2906 2906 2905 2904 2902 2901 2900 2899 2897 2895 2895 2894 2894 2894 2894 2894 2894 2895 2895
2982 2982 2982 2981 2980 2978 2976 2973 2968 2963 2962 2963 2964 2964 2964 2962 2962 2961 2959 2957 2958 2957 2955 2954 2954 2953 2953 2952 2952 2951 2950 2948 2948 2948 2946 2945 2944 2943 2941 2940 2938 2936 2935 2933 2931 2928 2926 2924 2922 2921 2920 2919 2918 2915 2914 2913 2912 2911 2910 2909 2907 2907 2906 2903 2902 2900 2899 2898 2898 2898 2897 2896 2895 2894 2893 2891 2889 2888 2887 2886 2886 2886 2885 2885 2886 2887
2977 2977 2978 2977 2975 2974 2973 2968 2966 2963 2960 2959 2961 2962 2960 2959 2959 2958 2955 2954 2955 2955 2952 2951 2951 2950 2949 2948 2947 2946 2945 2943 2943 2944 2942 2939 2938 2937 2935 2934 2933 2931 2929 2927 2925 2923 2921 2918 2917 2915 2913 2912 2911 2909 2907 2906 2905 2904 2903 2902 2901 2900 2899 2898 2896 2895 2893 2892 2891 2891 2890 2889 2888 2887 2886 2885 2883 2881 2880 2880 2879 2879 2878 2878 2878 2878
2974 2973 2975 2974 2971 2972 2971 2966 2963 2960 2957 2956 2959 2960 2958 2956 2956 2956 2953 2950 2950 2950 2949 2948 2948 2947 2945 2944 2943 2941 2940 2938 2938 2940 2939 2935 2933 2932 2930 2929 2927 2926 2924 2922 2919 2917 2915 2913 2911 2910 2908 2906 2904 2903 2901 2898 2897 2896 2895 2895 2894 2893 2892 2890 2890 2889 2888 2887 2885 2884 2883 2882 2880 2879 2878 2877 2877 2875 2875 2874 2874 2872 2871 2871 2871 2871
2971 2971 2971 2970 2968 2968 2967 2962 2958 2956 2954 2955 2957 2957 2956 2954 2954 2954 2952 2948 2946 2947 2947 2945 2945 2944 2942 2941 2939 2937 2936 2934 2933 2934 2935 2932 2929 2928 2926 2924 2922 2920 2919 2917 2914 2912 2910 2908 2906 2904 2903 2901 2899 2897 2895 2892 2891 2889 2888 2888 2887 2886 2883 2882 2881 2881 2880 2880 2879 2877 2876 2875 2874 2873 2872 2871 2870 2869 2869 2868 2867 2866 2865 2864 2863 2863
2968 2968 2967 2966 2965 2965 2963 2959 2954 2952 2952 2953 2954 2955 2954 2953 2951 2950 2948 2945 2945 2946 2944 2942 2941 2940 2939 2937 2935 2932 2931 2930 2929 2928 2928 2927 2924 2922 2921 2920 2918 2916 2914 2912 2910 2907 2905 2904 2902 2900 2898 2896 2894 2891 2889 2886 2884 2883 2882 2882 2880 2878 2875 2873 2872 2872 2871 2871 2871 2870 2869 2868 2867 2866 2866 2865 2864 2863 2862 2862 2861 2860 2859 2858 2857 2856
2965 2964 2963 2962 2961 2960 2958 2956 2952 2949 2949 2950 2951 2952 2952 2950 2947 2945 2943 2943 2944 2943 2941 2940 2938 2936 2935 2933 2931 2928 2926 2926 2924 2923 2922 2921 2919 2917 2916 2914 2912 2910 2909 2907 2905 2902 2900 2898 2897 2896 2894 2893 2890 2887 2884 2881 2879 2878 2876 2875 2873 2870 2868 2866 2864 2863 2862 2862 2861 2861 2860 2860 2859 2859 2858 2858 2857 2855 2855 2855 2854 2853 2852 2851 2850 2850
2962 2961 2959 2958 2958 2956 2955 2953 2950 2946 2946 2948 2948 2949 2949 2946 2943 2942 2941 2940 2940 2939 2938 2936 2934 2932 2930 2927 2926 2924 2922 2920 2919 2917 2916 2914 2912 2911 2909 2908 2906 2904 2902 2901 2899 2897 2894 2892 2890 2889 2888 2887 2885 2882 2879 2876 2873 2872 2870 2868 2866 2863 2860 2859 2857 2855 2854 2853 2852 2852 2851 2850 2850 2850 2849 2849 2849 2847 2847 2847 2847 2846 2845 2845 2844 2843
2958 2957 2955 2954 2954 2953 2950 2947 2945 2944 2944 2946 2945 2944 2944 2942 2941 2940 2938 2935 2935 2934 2932 2930 2929 2928 2925 2922 2921 2919 2917 2915 2914 2912 2910 2908 2906 2905 2903 2901 2900 2898 2896 2895 2893 2890 2887 2884 2883 2882 2881 2880 2878 2876 2873 2870 2867 2865 2864 2862 2858 2855 2853 2851 2850 2848 2847 2846 2844 2843 2842 2841 2840 2840 2840 2840 2839 2838 2838 2839 2838 2837 2837 2837 2837 2836
2952 2953 2953 2950 2949 2948 2945 2942 2941 2941 2942 2942 2941 2939 2939 2938 2937 2936 2933 2931 2930 2929 2928 2926 2923 2922 2921 2918 2915 2913 2912 2910 2908 2906 2905 2902 2901 2899 2897 2895 2894 2892 2890 2888 2886 2884 2881 2877 2875 2874 2873 2873 2872 2869 2866 2863 2860 2857 2857 2855 2851 2848 2845 2843 2841 2840 2839 2838 2837 2836 2834 2832 2831 2831 2831 2830 2829 2828 2829 2829 2828 2828 2829 2829 2829 2829
2947 2949 2949 2946 2943 2942 2939 2937 2936 2936 2936 2937 2937 2935 2934 2933 2932 2931 2928 2926 2925 2924 2923 2920 2917 2916 2915 2913 2910 2908 2906 2905 2903 2901 2899 2897 2895 2893 2892 2889 2888 2886 2883 2881 2879 2877 2874 2871 2869 2867 2864 2864 2865 2862 2858 2856 2853 2850 2848 2846 2843 2840 2838 2835 2833 2831 2830 2829 2828 2827 2825 2823 2822 2822 2822 2822 2820 2819 2819 2819 2819 2819 2820 2821 2821 2822
2942 2943 2943 2941 2938 2935 2930 2928 2930 2931 2931 2931 2931 2930 2929 2928 2927 2925 2923 2921 2920 2918 2916 2915 2912 2911 2909 2907 2904 2902 2900 2899 2897 2895 2893 2891 2888 2887 2885 2883 2881 2879 2877 2874 2872 2869 2866 2864 2862 2860 2857 2856 2856 2855 2851 2848 2846 2843 2840 2837 2834 2831 2829 2827 2825 2823 2821 2821 2819 2818 2817 2816 2814 2814 2813 2813 2812 2810 2809 2810 2811 2811 2812 2813 2813 2814
2937 2937 2935 2933 2932 2929 2923 2922 2925 2926 2925 2925 2925 2923 2922 2921 2920 2919 2917 2915 2914 2912 2911 2909 2907 2905 2903 2901 2898 2896 2894 2894 2891 2888 2886 2885 2882 2880 2878 2876 2873 2871 2869 2867 2864 2861 2858 2856 2854 2851 2849 2847 2847 2845 2842 2839 2838 2835 2832 2828 2825 2822 2819 2818 2817 2814 2813 2812 2811 2809 2809 2808 2807 2806 2805 2805 2804 2802 2800 2800 2801 2802 2803 2805 2805 2805
2933 2931 2929 2928 2926 2923 2918 2917 2919 2919 2919 2920 2919 2918 2917 2916 2913 2912 2911 2909 2908 2906 2904 2903 2901 2899 2897 2895 2892 2890 2888 2887 2885 2882 2879 2877 2876 2874 2871 2868 2866 2863 2861 2860 2856 2853 2850 2847 2845 2842 2839 2838 2837 2835 2831 2829 2828 2826 2822 2818 2815 2812 2809 2808 2807 2804 2803 2803 2802 2800 2799 2798 2796 2796 2795 2794 2794 2793 2791 2792 2792 2793 2794 2795 2796 2796
2928 2925 2925 2925 2921 2916 2913 2914 2916 2915 2912 2912 2913 2912 2911 2910 2908 2906 2904 2903 2902 2900 2898 2896 2895 2893 2891 2889 2886 2884 2882 2880 2879 2876 2872 2870 2869 2866 2863 2861 2858 2856 2854 2851 2847 2844 2841 2838 2835 2832 2829 2829 2827 2824 2821 2819 2818 2816 2812 2807 2804 2800 2797 2796 2795 2793 2792 2792 2791 2790 2789 2786 2785 2786 2785 2783 2783 2782 2782 2783 2784 2784 2784 2786 2787 2787
2922 2920 2921 2920 2915 2911 2910 2912 2913 2911 2908 2907 2908 2907 2905 2903 2902 2900 2898 2897 2896 2894 2892 2890 2889 2887 2886 2883 2881 2878 2875 2873 2872 2868 2865 2864 2862 2859 2856 2853 2849 2847 2845 2842 2838 2835 2832 2829 2826 2822 2819 2818 2816 2813 2810 2808 2807 2806 2802 2797 2793 2789 2786 2785 2782 2780 2780 2780 2779 2778 2777 2775 2774 2775 2774 2773 2773 2772 2771 2772 2774 2774 2775 2776 2776 2777